Wind_Speed
12 12 11 11 11 11 11 12 13 13 12 12 11 11 12 11 11 10 11 11 12 12 13 12 11 11 11 10 11 11 11 11 12 12 12 12 13 13 13 13 13 13 13 13 12 12 12 12 12 12 12 12 12 12 12 13 13 13 14 14 14 15 15 16 17 17 17 17 18 18 18 19 20 21
13 12 11 11 11 12 12 12 13 12 11 10 10 11 12 12 11 11 11 11 12 13 14 13 13 13 13 12 12 12 13 13 13 13 13 14 14 14 14 14 14 14 14 14 14 14 14 13 13 13 14 14 14 14 14 14 15 15 15 16 16 16 17 18 19 19 20 20 20 20 20 20 20 20
13 12 11 11 11 11 11 12 11 10 9 10 11 12 12 12 12 12 12 12 13 14 14 14 15 15 14 14 14 13 13 14 14 14 14 15 16 16 15 14 14 15 15 15 15 15 15 14 14 15 15 16 16 16 16 16 17 17 17 17 18 18 19 19 20 21 21 22 22 22 22 22 22 22
12 11 11 11 11 11 11 10 9 8 8 10 11 11 12 12 12 12 13 14 15 15 14 15 15 14 14 15 15 14 14 14 14 14 15 17 17 16 15 15 15 15 16 16 15 15 15 15 15 15 16 17 17 18 18 18 18 19 19 19 19 20 20 20 21 22 22 23 23 23 23 24 24 23
12 12 12 12 11 11 10 9 9 9 9 10 11 12 12 12 12 13 13 15 15 14 14 15 15 13 13 14 15 15 15 14 14 15 17 18 18 16 16 16 15 15 15 15 15 15 16 16 17 17 18 19 19 19 20 20 20 20 20 20 20 21 21 22 22 23 24 24 25 25 25 25 26 26
12 12 13 12 12 12 12 11 11 11 11 12 13 13 14 14 14 14 14 15 14 13 13 14 14 13 13 13 13 14 15 14 14 15 17 18 18 17 16 16 16 16 16 17 17 18 19 20 20 20 20 21 21 21 21 22 22 23 23 23 24 24 24 25 25 26 26 26 27 27 28 28 29 29
11 12 12 12 13 13 13 13 14 14 13 14 14 14 14 14 14 15 16 15 13 12 13 13 14 14 15 14 14 14 15 14 15 17 18 18 18 18 18 17 17 17 18 19 20 21 22 23 23 23 23 23 23 24 24 25 26 27 28 28 28 29 29 30 30 31 32 32 32 32 32 32 32 32
11 11 11 12 12 13 14 14 15 15 15 15 16 15 13 13 14 15 16 15 14 13 14 15 15 15 15 15 15 15 15 15 15 17 19 19 19 19 19 19 19 20 21 23 24 25 26 26 26 27 27 27 28 29 29 30 30 31 32 33 33 34 34 34 35 36 37 38 38 38 38 37 37 36
11 11 12 12 12 13 14 14 15 15 15 15 16 16 15 14 14 15 16 17 16 15 16 17 17 17 16 16 17 17 17 17 18 19 20 21 21 21 22 22 22 23 24 26 28 28 29 29 30 31 32 32 33 34 34 35 35 36 37 37 38 39 40 40 41 41 41 41 41 41 41 42 42 41
14 14 15 15 14 13 14 14 14 14 14 15 16 17 17 17 16 17 17 18 18 18 18 19 20 20 19 18 19 19 19 20 21 22 23 23 23 24 25 25 26 27 28 29 30 31 32 32 33 34 34 35 36 37 39 39 40 41 42 43 44 45 45 46 46 46 46 45 45 44 44 44 44 44
17 17 17 17 16 16 15 16 16 15 15 15 16 17 18 18 19 20 20 20 20 21 21 22 23 24 23 23 23 23 23 23 23 24 25 25 25 26 28 29 30 31 31 32 32 33 33 34 34 35 36 37 39 41 42 43 45 46 47 47 48 48 48 49 48 48 48 48 48 47 47 46 46 47
19 19 19 18 18 18 18 17 18 18 18 17 18 19 20 20 21 22 23 23 22 23 24 25 25 26 26 27 27 27 27 27 27 28 29 29 28 29 30 32 33 33 33 33 33 32 33 34 36 37 38 39 40 42 43 44 46 47 48 48 49 49 49 49 49 49 49 50 50 50 49 48 48 48
21 22 22 21 21 20 20 20 21 22 22 21 21 21 22 23 23 24 26 26 26 25 25 26 27 28 28 29 30 30 30 31 31 32 32 32 32 31 31 31 32 32 32 33 33 34 35 36 37 38 38 39 41 42 43 44 44 45 47 48 49 49 50 50 50 50 51 51 51 51 51 51 51 50
23 24 25 25 24 24 24 25 26 26 26 26 26 25 25 25 25 25 26 28 29 29 28 28 28 29 30 30 31 31 31 32 33 33 33 33 33 31 30 30 32 33 34 34 35 36 37 38 38 38 39 40 41 42 43 43 43 44 46 47 49 50 50 51 51 51 52 52 52 52 52 53 53 52
22 24 26 26 26 27 28 28 29 29 29 29 28 28 28 28 28 28 28 29 30 32 31 31 31 31 32 31 30 31 32 32 33 33 34 34 33 32 32 33 35 36 37 37 37 37 38 39 39 39 39 40 41 42 42 43 44 45 47 48 49 49 50 51 51 51 52 52 52 52 52 53 53 53
24 26 27 27 27 27 28 30 30 30 30 30 30 30 31 31 31 32 32 32 32 33 34 34 34 34 33 32 31 32 33 33 33 33 33 33 33 34 36 37 38 38 39 39 39 39 39 39 39 39 39 39 41 41 41 42 44 46 47 48 48 48 49 49 50 51 51 51 51 51 52 52 53 52
26 26 27 27 28 28 29 30 30 31 31 31 31 32 32 32 33 34 35 36 36 36 37 37 37 36 35 34 35 36 36 35 34 33 33 34 35 37 38 39 39 39 39 40 41 40 39 38 39 39 40 41 42 41 42 44 46 47 48 48 49 49 49 49 50 51 51 52 52 53 53 53 53 53
28 28 29 29 30 31 31 31 31 31 31 31 31 32 33 34 36 37 37 38 39 38 38 39 40 39 37 37 38 39 39 38 36 35 35 36 37 38 39 39 40 40 40 40 40 39 38 38 39 41 42 42 43 43 44 46 48 49 50 50 51 51 51 51 52 53 54 54 55 56 56 56 56 56
31 32 33 33 34 34 34 34 34 34 34 35 35 35 37 39 40 41 40 40 40 40 39 39 40 40 39 39 41 41 40 38 37 36 37 38 38 39 40 40 40 40 40 39 39 39 39 40 42 43 44 44 45 45 47 49 51 52 53 54 54 54 54 54 56 57 58 59 60 60 61 61 61 61
33 35 36 37 39 39 37 37 37 36 37 40 40 40 41 43 43 43 43 42 41 40 40 40 39 39 40 40 41 40 38 38 38 39 40 40 40 41 41 41 41 41 41 40 40 41 42 44 45 45 46 46 46 48 50 53 54 56 57 58 58 58 58 59 60 61 62 63 64 65 65 65 65 65
35 37 38 39 41 43 42 41 40 39 40 42 41 41 42 43 44 43 43 43 43 42 41 41 40 39 38 38 39 39 39 41 42 42 43 43 43 42 42 41 42 42 42 41 42 43 44 45 46 46 46 47 48 51 53 55 57 59 61 62 62 63 63 64 65 65 65 65 65 65 65 65 65 65
40 41 41 41 42 45 45 44 43 42 42 42 41 41 42 42 42 42 43 44 45 44 43 43 42 41 40 40 40 41 42 43 43 43 44 44 44 43 43 43 43 43 43 42 44 45 46 46 46 46 46 48 50 53 55 57 59 61 62 64 65 66 66 66 66 65 64 63 62 61 60 60 59 59
46 46 46 45 45 46 47 47 46 45 45 44 44 44 45 44 42 42 44 46 47 47 46 45 43 42 41 41 41 42 42 43 43 43 43 44 44 45 45 45 45 44 43 43 45 47 47 47 47 47 48 49 52 54 56 58 61 62 63 65 66 66 65 64 62 61 59 57 55 54 53 52 52 52
51 51 51 50 48 48 49 49 49 48 48 47 47 48 47 45 45 46 47 49 50 49 47 43 40 39 39 39 40 40 41 42 42 42 42 43 44 45 46 46 46 45 44 45 46 48 48 47 47 48 50 52 54 55 57 59 62 63 64 65 65 63 61 58 57 55 53 52 50 49 49 48 48 48
55 56 56 55 53 52 51 51 51 51 51 51 50 49 48 47 48 50 51 53 52 51 48 43 39 38 37 36 37 39 40 41 41 41 41 42 44 45 47 48 47 46 46 46 47 47 47 48 49 51 52 54 55 57 59 61 62 63 64 63 61 58 56 54 53 52 51 50 49 48 48 48 48 48
60 60 60 58 57 55 54 53 52 53 53 53 51 50 49 50 52 52 52 52 51 51 50 46 41 38 37 36 37 39 40 40 40 40 41 42 43 45 47 47 47 47 46 47 47 47 48 49 51 52 53 55 56 58 60 61 62 62 62 59 57 54 53 52 51 50 49 49 48 48 47 47 46 46
64 64 63 61 59 58 57 56 55 55 54 53 51 49 49 50 50 50 50 51 51 50 48 46 43 39 38 39 40 40 39 39 39 40 41 42 44 45 45 47 47 47 46 46 47 47 49 51 53 54 55 56 57 58 58 59 60 60 59 57 54 52 51 50 49 48 46 45 44 43 42 41 41 40
67 67 65 64 63 61 59 58 57 56 54 53 51 49 48 48 48 49 50 52 53 50 47 47 47 45 43 44 44 42 40 40 40 41 42 43 44 45 46 47 47 46 46 46 47 49 51 52 53 54 55 56 57 57 57 57 58 57 56 54 52 50 47 45 43 41 39 38 37 36 36 36 37 38
67 67 66 65 64 62 61 61 60 57 55 53 52 51 49 48 48 49 50 51 52 51 50 49 49 48 47 46 44 41 41 40 41 42 44 45 46 46 46 46 45 45 45 46 48 49 51 52 52 53 54 55 56 56 57 57 56 55 52 50 47 43 39 37 35 34 33 33 33 33 33 34 35 37
66 65 64 63 61 61 60 59 57 56 54 52 52 51 49 47 46 47 48 49 48 46 47 48 48 46 46 43 41 40 41 41 42 44 46 47 47 46 44 43 42 43 44 46 48 49 49 50 51 52 53 53 54 56 57 56 54 51 47 43 40 37 34 32 32 31 31 30 30 31 32 34 36 38
62 61 60 59 58 58 57 56 55 55 54 53 52 50 48 46 45 45 47 48 47 44 44 46 47 47 46 43 41 41 43 44 45 45 46 46 44 42 40 40 41 43 45 46 46 46 46 48 50 51 52 52 53 55 55 52 49 46 42 37 35 34 32 31 31 30 29 28 29 31 33 36 38 39
61 61 60 60 60 58 57 56 55 55 54 53 52 49 46 45 45 45 46 48 50 49 49 50 51 51 49 45 42 42 44 45 45 44 43 41 38 37 37 39 41 42 43 43 43 44 45 47 49 50 51 51 51 51 50 48 44 40 38 35 33 33 32 30 28 27 27 29 31 33 36 38 39 41
59 60 59 58 57 55 53 51 50 50 51 50 48 46 44 42 42 43 44 46 49 51 52 52 52 51 47 42 40 40 41 40 38 37 35 34 34 35 37 39 40 39 39 39 40 42 45 47 47 47 47 48 47 47 45 43 40 37 35 34 33 32 30 27 26 27 28 30 32 35 38 39 40 41
52 54 53 50 49 49 50 50 48 47 47 46 45 44 42 41 40 40 41 44 45 46 46 45 44 41 38 34 33 32 31 30 30 30 31 32 33 35 36 37 37 36 36 37 39 42 44 44 43 43 43 45 45 44 41 39 37 35 34 33 31 29 27 26 27 28 30 31 33 35 38 39 40 41
49 51 51 48 46 47 48 49 48 46 46 45 44 42 41 41 40 40 40 42 42 40 39 39 37 34 32 30 30 29 29 29 30 31 32 33 34 35 35 35 35 34 35 37 39 41 41 39 37 39 41 44 44 41 38 35 34 33 32 31 28 25 25 26 28 30 31 32 34 35 37 39 40 41
50 52 51 46 43 42 41 40 41 41 42 43 43 43 43 41 40 40 41 42 40 38 37 37 34 32 31 31 32 32 33 33 33 33 33 33 33 33 33 33 33 33 34 36 38 38 36 34 34 36 39 42 43 40 36 33 31 30 30 29 26 25 26 27 29 30 32 33 34 35 37 39 40 41
52 55 53 46 39 34 29 29 32 35 36 37 39 40 41 40 41 41 41 40 39 38 36 34 33 32 33 34 35 35 35 34 34 34 33 32 32 32 31 31 31 32 34 36 36 34 32 33 34 35 37 38 39 39 36 34 32 30 29 28 27 27 28 29 30 32 33 34 35 36 37 39 41 41
52 56 58 56 52 45 39 38 40 41 40 39 38 37 37 38 38 38 37 38 38 36 34 33 34 35 35 35 34 33 32 32 32 31 31 30 30 30 29 30 30 32 33 33 32 31 31 32 33 35 35 35 35 36 36 34 33 31 29 29 29 29 30 31 32 33 35 36 37 37 38 39 41 40
51 54 57 60 61 60 57 54 51 48 46 43 39 37 37 37 36 35 36 38 36 33 32 32 33 34 34 33 31 29 29 29 29 29 29 29 28 28 28 29 30 31 31 30 30 30 31 32 33 34 34 33 33 33 34 34 34 33 31 30 30 30 31 33 33 35 37 38 39 39 39 39 40 38
46 50 53 55 57 59 58 54 49 45 43 42 39 38 40 42 41 40 38 35 33 31 31 31 31 31 31 29 27 26 27 27 27 27 27 26 26 26 27 29 30 30 29 28 29 29 31 32 33 33 33 32 31 32 32 33 34 33 32 32 31 32 33 34 35 36 37 38 40 41 41 40 38 34
41 43 45 48 50 50 50 48 46 45 44 43 42 42 43 44 43 39 35 33 33 34 34 31 29 28 27 26 25 25 26 26 25 24 24 24 24 26 27 29 29 28 27 27 28 29 30 32 32 32 32 31 31 31 32 33 33 33 32 32 32 32 33 34 35 35 36 37 39 42 42 39 34 27
39 38 39 41 41 42 43 43 44 47 50 48 44 41 39 36 34 34 36 37 37 34 31 29 27 26 25 25 25 25 25 24 22 22 22 23 24 26 28 28 27 26 26 26 27 28 30 31 32 31 31 30 30 30 31 32 32 32 31 30 30 31 31 31 32 32 34 37 40 41 40 35 27 19
38 36 37 36 34 34 37 37 37 42 45 44 38 35 34 33 33 36 38 36 32 28 27 26 26 26 26 26 26 25 23 21 21 21 22 23 25 27 27 26 25 25 26 26 26 27 29 30 30 30 30 29 29 29 30 31 31 30 29 28 27 27 26 26 28 30 33 37 38 37 33 26 18 13
36 34 34 33 31 32 33 32 32 34 35 34 32 32 31 31 32 34 33 30 27 26 26 26 25 26 27 27 25 23 21 20 21 22 22 23 25 26 25 24 25 25 25 25 25 27 28 28 28 28 29 29 28 28 29 30 30 29 26 24 23 23 22 23 26 30 33 34 33 29 24 17 11 9
35 33 33 32 33 36 35 32 30 30 29 28 29 30 29 29 31 31 29 27 25 26 27 27 27 28 27 25 23 21 21 21 21 21 22 23 24 24 24 24 24 25 24 24 25 26 27 26 27 27 27 27 27 27 28 29 29 27 24 21 20 19 20 22 26 29 30 30 27 22 17 12 8 7
Wind_Direction
253 252 249 246 243 242 237 228 227 229 231 235 242 248 251 246 241 240 243 247 251 254 257 260 264 264 265 270 271 270 272 274 274 273 273 272 271 271 271 272 274 276 279 281 282 283 284 286 289 292 294 296 297 298 298 299 299 300 299 299 298 296 294 293 291 289 287 285 284 284 284 284 285 287
255 255 254 253 251 249 245 238 233 230 229 232 237 244 250 253 251 249 249 251 255 259 261 263 265 266 267 269 273 274 274 274 274 275 275 275 272 270 270 271 273 275 278 279 279 280 280 281 283 286 289 290 291 292 293 294 294 295 295 295 295 295 295 295 295 294 293 293 291 290 290 289 288 288
255 255 253 250 248 248 246 245 243 240 235 231 233 238 245 252 258 260 261 260 260 261 263 263 264 267 269 267 268 272 273 273 274 274 274 272 270 269 270 271 273 274 275 275 275 276 277 278 281 284 287 288 289 289 290 291 291 292 292 292 292 293 293 293 294 294 294 294 295 294 294 294 293 292
253 252 250 248 247 248 250 252 254 253 250 248 248 251 254 258 261 262 263 264 263 263 265 265 264 268 273 272 271 271 270 270 272 272 270 267 266 267 269 269 270 270 271 272 274 278 280 281 283 286 287 288 288 288 288 288 289 289 290 291 291 291 291 291 291 292 292 293 293 294 294 294 294 293
261 260 258 256 255 257 260 263 265 266 267 268 269 269 268 266 264 261 259 259 261 264 266 267 266 266 268 270 272 272 271 269 269 268 267 267 267 268 267 267 268 267 268 270 275 281 284 286 287 288 289 290 290 290 290 290 290 290 290 290 291 291 291 291 291 291 290 290 290 290 290 291 291 291
267 267 266 267 268 271 273 275 276 277 278 279 278 278 276 274 272 268 264 260 260 260 261 265 268 268 265 265 268 271 273 276 276 272 268 268 269 268 266 267 268 269 270 271 276 283 288 290 291 292 293 294 295 295 295 296 295 294 293 293 293 293 294 295 295 295 293 292 290 288 287 286 286 286
269 269 271 273 276 277 277 278 279 278 278 278 278 278 278 278 277 274 270 266 262 258 257 259 262 264 265 265 264 265 269 274 278 275 272 272 273 273 272 273 274 276 277 278 282 287 291 292 292 293 294 294 295 295 295 295 295 294 293 293 293 293 294 295 296 297 297 296 294 292 290 287 284 283
271 275 277 279 280 280 280 279 279 279 278 277 276 275 274 274 275 275 274 272 269 265 263 263 262 261 263 264 265 265 266 271 275 276 276 277 279 279 278 279 280 281 283 284 287 290 293 294 295 295 295 294 293 292 292 291 290 290 289 289 289 289 289 289 290 291 292 292 293 292 291 290 288 285
285 288 290 290 290 288 286 284 282 281 281 280 279 279 277 274 271 271 273 273 272 269 268 267 265 262 260 262 265 268 270 272 273 273 273 275 277 277 276 277 278 279 281 284 287 290 291 292 292 291 291 290 289 289 288 288 288 287 287 287 286 286 286 286 286 286 286 286 286 286 286 286 286 285
304 307 308 308 304 298 291 287 283 282 281 281 281 282 282 281 278 274 273 273 274 274 274 274 274 273 270 267 266 268 269 270 270 271 271 272 273 274 274 275 276 277 279 281 282 284 284 284 284 285 285 286 287 288 288 288 288 288 288 288 287 287 287 287 287 287 286 285 284 283 282 281 281 281
310 313 315 314 311 303 295 291 289 287 285 284 284 283 283 283 283 281 279 278 279 281 282 281 280 281 280 277 274 272 271 271 272 274 275 276 277 277 276 276 275 274 274 274 275 276 277 279 280 281 283 284 286 287 287 287 287 287 288 288 288 288 288 288 288 288 287 286 285 283 281 280 278 278
306 307 308 308 305 300 296 294 292 291 289 287 284 282 281 281 282 282 281 278 276 277 279 279 278 278 278 277 275 273 271 271 271 272 273 274 275 276 276 275 273 272 271 272 273 274 277 281 283 284 285 286 287 288 288 288 288 288 289 289 289 289 289 289 289 288 287 286 285 284 282 280 278 276
301 301 300 299 296 293 290 289 288 289 290 289 286 283 281 280 280 280 279 278 275 273 272 272 274 275 276 276 273 270 269 269 269 269 269 269 271 273 272 271 270 271 273 276 279 282 284 287 289 289 290 291 291 291 292 292 292 293 293 294 293 293 292 291 290 289 288 287 285 284 283 281 278 276
297 297 296 295 292 290 287 286 286 287 289 290 289 287 285 284 283 281 280 280 279 276 273 271 272 275 279 278 273 267 265 266 268 269 269 271 272 273 272 273 274 275 277 279 283 286 288 289 291 292 293 293 294 295 295 295 296 297 297 297 296 295 293 292 291 289 288 287 286 284 283 281 280 278
292 292 291 290 288 287 286 286 285 286 287 288 288 286 285 285 284 284 282 280 280 279 276 273 273 275 278 279 273 268 266 267 269 269 270 270 270 271 274 277 278 279 279 280 282 285 287 288 290 291 292 293 294 294 294 296 297 298 298 297 295 294 293 292 290 289 288 287 286 284 283 282 281 279
290 290 290 288 286 285 284 284 284 284 284 284 283 282 282 282 283 283 282 281 279 279 278 276 274 275 276 275 272 269 269 269 269 268 267 267 268 272 276 278 277 278 279 281 283 285 286 287 288 290 290 291 291 292 293 296 300 301 301 300 298 296 295 293 292 291 290 288 287 285 284 283 281 280
287 288 287 286 284 284 283 283 283 283 281 281 280 281 282 283 283 283 283 282 280 278 278 277 277 276 275 273 271 271 271 271 270 268 266 267 271 274 276 276 275 277 279 281 283 283 284 286 288 290 291 291 291 292 295 299 304 306 306 305 302 300 297 295 293 292 290 289 287 286 285 283 282 281
288 286 283 281 282 282 283 282 283 283 282 280 280 282 283 284 285 285 284 282 281 279 277 277 277 276 274 271 270 271 272 272 270 268 268 270 273 275 274 274 274 276 278 279 279 281 284 288 291 293 293 293 293 294 296 300 305 308 309 308 305 302 299 297 295 293 292 290 288 287 285 284 282 281
289 288 286 283 281 280 280 280 281 282 281 279 280 283 283 283 284 285 284 281 279 278 276 276 277 276 273 272 272 272 272 271 271 272 273 274 275 274 274 273 274 276 278 278 279 282 286 290 293 295 295 294 295 296 298 301 305 308 309 309 307 304 301 299 297 295 293 291 289 288 286 285 283 282
286 287 286 284 283 280 279 279 279 280 279 278 281 283 283 282 283 284 283 280 277 276 275 275 276 274 271 270 271 272 272 272 274 276 277 277 276 275 274 275 277 279 280 280 281 285 288 291 294 296 296 296 297 300 302 305 307 309 310 310 309 306 303 301 299 297 295 293 291 289 287 285 283 281
280 282 282 281 281 280 279 278 277 277 277 278 280 281 281 282 284 285 284 280 276 274 274 275 274 272 269 268 269 271 272 274 276 277 277 276 276 275 275 277 280 281 280 280 282 285 290 294 295 296 297 298 300 302 305 307 309 310 310 311 310 307 305 303 301 299 297 295 293 291 289 286 284 283
277 281 282 280 278 277 277 277 277 277 276 277 278 278 279 280 281 282 281 278 274 273 273 273 272 271 269 269 270 271 272 273 274 274 274 274 274 275 275 277 280 279 278 280 283 287 294 297 297 298 299 300 302 304 307 309 308 309 310 310 309 307 306 304 302 300 298 296 294 292 290 288 286 285
276 281 283 281 278 276 275 276 277 276 277 277 277 277 278 277 276 275 274 274 274 274 273 272 271 270 270 270 270 271 271 272 273 272 273 273 273 273 274 277 279 277 276 279 284 290 296 299 299 300 300 301 304 306 308 307 306 307 309 309 307 306 305 303 302 300 298 296 294 293 291 289 288 286
275 280 283 283 280 277 275 275 275 276 277 277 277 277 276 274 272 271 273 276 276 274 273 272 268 268 270 271 272 273 273 273 273 273 273 273 273 273 274 277 279 277 276 280 286 292 297 299 299 300 301 303 306 307 307 305 304 306 308 308 306 305 303 302 300 299 297 295 294 293 291 290 289 287
275 279 282 282 281 278 276 275 275 275 276 277 277 276 273 271 270 271 274 276 275 273 271 268 266 268 271 273 273 274 274 274 274 274 273 273 274 275 276 277 278 277 277 281 288 293 296 298 298 300 302 305 307 307 307 305 304 306 307 306 305 303 301 300 298 296 296 295 294 293 291 290 289 287
276 279 281 281 280 279 277 275 275 275 276 276 276 273 270 269 270 271 272 272 273 273 268 263 264 270 271 271 274 276 276 275 275 275 274 274 276 276 276 277 278 276 278 284 289 293 295 297 299 301 304 306 307 307 306 306 306 306 306 304 303 301 299 297 296 296 295 294 293 292 291 290 290 288
275 278 279 279 278 277 277 276 275 275 275 275 274 272 269 269 270 271 269 267 270 272 267 261 265 270 270 272 274 276 277 277 276 277 276 276 277 277 277 278 278 277 280 285 290 292 294 297 300 302 305 306 306 306 307 306 305 305 303 302 301 299 298 297 296 295 294 293 293 293 292 292 292 291
274 276 276 276 276 276 276 275 274 274 273 273 272 271 270 269 269 269 268 266 267 269 266 265 269 270 269 271 271 272 276 278 279 279 278 278 278 277 277 279 279 278 281 286 289 292 295 298 301 303 304 305 306 307 307 305 303 303 302 301 300 300 299 298 297 296 295 295 294 294 295 295 295 296
273 273 274 274 274 274 273 272 272 271 271 271 271 271 270 269 268 267 266 265 266 267 267 269 270 268 267 268 268 270 274 278 280 282 281 279 277 276 276 277 278 279 283 287 291 294 296 299 301 302 304 306 307 307 307 305 303 303 303 303 302 302 301 299 298 297 297 297 296 296 297 299 300 301
272 272 272 272 272 271 271 271 270 270 270 270 270 270 270 268 266 264 263 263 265 269 271 268 265 265 266 267 269 272 276 279 282 284 283 279 275 274 275 277 279 282 286 290 292 294 296 299 301 304 305 306 306 306 306 305 305 305 305 305 305 304 302 300 299 299 298 298 298 299 301 303 304 305
272 271 271 270 271 271 271 272 272 271 270 270 269 269 269 266 263 262 262 261 261 264 265 262 263 267 270 272 274 276 277 279 282 282 280 276 273 273 276 279 283 287 289 291 292 294 297 300 303 305 305 306 306 306 305 306 306 306 306 305 303 302 301 301 300 300 300 300 301 302 303 305 307 308
270 271 271 271 272 272 272 272 272 271 270 269 268 267 267 266 264 263 262 261 259 259 259 261 266 271 273 274 274 274 274 275 276 276 274 272 271 273 278 282 286 289 290 290 293 296 300 303 304 304 305 306 306 305 305 306 307 305 304 303 302 300 301 301 300 300 301 302 302 302 303 305 308 310
270 271 272 272 271 270 268 268 268 268 267 266 266 266 266 265 265 264 263 263 262 262 263 266 269 272 273 272 271 270 271 270 269 268 267 268 271 275 280 284 286 287 288 291 295 299 302 304 304 305 305 306 305 305 305 305 304 303 302 302 301 300 300 301 301 301 302 302 302 302 303 306 310 311
267 269 270 270 269 267 264 263 265 265 264 263 264 265 265 265 266 266 265 264 263 265 268 270 270 270 268 266 265 265 264 263 263 265 267 271 276 280 283 284 284 284 287 293 297 301 304 304 305 306 306 305 305 304 303 302 302 302 303 302 300 300 301 301 302 302 302 302 302 303 304 307 310 312
257 262 266 267 269 269 265 261 261 264 264 264 264 264 265 266 266 265 263 261 261 263 266 267 266 264 262 263 264 265 266 267 270 274 277 279 282 283 282 281 282 284 288 294 298 302 303 304 304 305 305 306 305 304 301 299 299 301 302 301 299 299 300 300 301 302 303 304 305 305 306 308 311 313
249 252 259 263 267 268 265 261 261 262 263 263 263 262 263 263 262 260 259 258 259 260 262 264 265 264 264 266 269 272 274 276 278 280 281 281 280 278 277 278 281 286 291 296 300 302 302 302 302 303 305 307 308 306 302 298 298 301 301 299 296 296 299 300 302 303 304 306 308 308 308 309 311 313
245 244 247 251 256 258 258 259 261 260 260 264 264 259 258 258 256 253 253 256 260 263 263 263 262 261 263 267 271 275 276 277 278 278 276 275 274 273 275 277 282 289 294 299 301 302 301 301 301 302 304 307 310 309 306 301 299 301 302 298 296 297 300 302 303 304 305 307 309 310 310 310 311 313
247 244 243 243 245 246 248 254 259 261 264 266 264 259 257 255 249 246 252 260 265 262 256 253 254 258 265 270 272 273 272 271 270 270 269 269 270 272 275 280 288 294 299 300 301 300 299 299 300 300 303 305 308 310 309 305 302 302 300 297 296 297 298 300 302 303 305 307 309 310 310 310 311 312
248 246 244 243 245 247 250 255 259 260 260 258 256 255 252 244 240 249 259 260 254 247 245 252 260 265 269 271 269 266 264 263 263 264 266 268 270 273 278 287 295 299 300 299 297 297 296 297 298 300 302 305 307 311 312 309 305 303 299 296 294 294 296 298 300 301 303 305 307 309 311 311 311 311
253 249 247 246 247 248 250 253 253 251 250 249 246 244 241 241 249 259 259 248 241 245 255 265 270 269 266 264 260 257 257 258 260 263 266 268 271 277 286 296 299 299 296 294 293 293 295 297 299 300 302 305 308 311 312 310 307 304 300 297 295 294 295 296 297 299 301 304 306 309 310 311 309 308
255 253 251 248 248 247 247 246 245 244 245 245 242 239 240 245 251 252 246 243 253 263 267 268 266 262 257 255 253 253 255 258 261 265 268 271 277 286 295 300 297 293 290 290 290 292 294 297 299 300 302 305 309 311 312 311 309 305 301 298 295 294 293 295 296 299 301 304 307 309 310 310 308 303
252 253 250 247 247 244 239 238 242 245 242 239 237 238 241 244 245 244 247 255 264 266 264 260 256 252 249 249 251 254 257 259 263 267 270 275 284 294 299 297 292 288 288 288 289 292 295 298 300 302 304 307 309 312 314 314 311 307 304 300 297 295 295 297 299 302 305 307 310 310 310 309 305 295
247 248 246 244 243 238 234 237 245 244 236 229 228 234 241 244 247 249 252 254 255 254 252 250 247 245 246 248 250 253 256 259 262 266 272 281 292 298 298 293 287 286 286 287 289 293 297 299 302 304 306 308 309 312 316 318 316 313 310 306 302 301 302 303 306 308 310 312 313 313 312 310 302 285
241 242 240 237 233 227 228 235 239 234 226 224 228 234 238 240 241 242 242 242 243 245 244 242 242 243 245 247 248 251 253 256 261 268 278 289 297 298 294 288 285 285 285 286 290 294 297 300 304 306 308 309 310 312 318 323 322 319 315 311 309 308 310 311 313 315 316 318 319 318 317 312 298 279
237 237 235 232 226 221 221 227 228 224 222 225 227 226 225 226 228 232 235 237 238 238 237 237 238 240 242 243 246 248 252 258 266 275 286 296 299 295 288 285 284 285 285 287 291 295 298 303 307 309 310 311 310 313 320 326 327 323 318 315 314 315 317 318 320 321 323 326 327 327 323 316 301 286
Height
5781 5782 5782 5782 5782 5783 5783 5783 5783 5783 5783 5783 5782 5782 5782 5781 5781 5781 5781 5781 5781 5781 5781 5780 5780 5779 5779 5779 5778 5778 5778 5778 5778 5777 5777 5776 5775 5775 5774 5774 5774 5773 5773 5772 5771 5770 5770 5770 5769 5769 5768 5767 5767 5767 5766 5766 5765 5765 5764 5764 5764 5763 5763 5762 5762 5762 5761 5761 5761 5760 5759 5759 5758 5757
5779 5779 5780 5780 5781 5781 5781 5781 5781 5781 5781 5781 5781 5780 5780 5780 5780 5780 5780 5780 5780 5779 5779 5778 5778 5777 5777 5777 5777 5777 5776 5776 5776 5776 5775 5775 5774 5773 5773 5772 5772 5772 5772 5771 5770 5769 5768 5768 5768 5767 5767 5766 5766 5765 5765 5764 5764 5763 5763 5763 5762 5762 5761 5760 5760 5759 5759 5758 5758 5757 5757 5756 5755 5755
5776 5777 5778 5778 5778 5779 5779 5779 5779 5780 5780 5779 5779 5778 5778 5778 5778 5778 5778 5778 5778 5777 5777 5777 5776 5776 5775 5775 5776 5775 5775 5774 5774 5774 5774 5773 5772 5771 5771 5771 5770 5770 5770 5770 5769 5768 5767 5767 5766 5766 5765 5765 5764 5763 5763 5763 5762 5762 5761 5761 5760 5760 5759 5759 5758 5757 5757 5756 5755 5755 5754 5753 5753 5752
5774 5775 5775 5776 5776 5776 5777 5777 5777 5777 5777 5777 5776 5776 5776 5777 5777 5777 5776 5776 5775 5775 5775 5775 5774 5774 5774 5773 5773 5773 5773 5773 5772 5772 5771 5770 5770 5770 5769 5769 5768 5768 5768 5768 5767 5766 5766 5765 5765 5764 5764 5763 5762 5762 5761 5761 5760 5760 5760 5759 5759 5758 5758 5757 5756 5756 5755 5754 5753 5752 5752 5751 5750 5749
5772 5772 5773 5773 5773 5773 5773 5774 5774 5774 5774 5773 5773 5774 5774 5774 5775 5775 5774 5774 5773 5773 5773 5772 5772 5772 5772 5771 5771 5771 5771 5770 5770 5769 5769 5768 5768 5768 5768 5767 5766 5766 5766 5766 5766 5765 5764 5763 5763 5762 5762 5761 5760 5760 5759 5759 5758 5758 5757 5757 5756 5756 5755 5755 5754 5754 5753 5752 5751 5750 5750 5749 5748 5747
5770 5770 5770 5770 5771 5770 5770 5771 5771 5771 5770 5770 5770 5771 5771 5771 5772 5772 5771 5771 5771 5772 5771 5771 5770 5770 5770 5770 5770 5769 5769 5768 5768 5767 5766 5766 5767 5766 5765 5765 5764 5763 5763 5763 5763 5763 5762 5761 5760 5760 5759 5759 5758 5757 5757 5756 5756 5755 5755 5754 5753 5753 5752 5752 5751 5750 5750 5749 5749 5748 5747 5746 5745 5744
5768 5768 5768 5768 5768 5768 5768 5768 5768 5768 5768 5768 5768 5768 5768 5769 5769 5768 5768 5768 5769 5769 5769 5769 5769 5769 5768 5769 5769 5768 5768 5767 5766 5764 5764 5764 5764 5764 5763 5762 5761 5761 5761 5760 5760 5760 5759 5758 5757 5757 5756 5756 5755 5755 5754 5754 5753 5752 5752 5751 5750 5750 5749 5748 5747 5746 5746 5745 5745 5744 5743 5743 5742 5741
5766 5765 5765 5765 5765 5765 5765 5765 5765 5765 5766 5766 5766 5766 5766 5766 5766 5766 5765 5766 5766 5767 5767 5767 5767 5767 5767 5767 5767 5766 5766 5765 5764 5762 5762 5762 5762 5761 5761 5760 5759 5759 5758 5757 5757 5756 5756 5755 5754 5753 5753 5752 5752 5751 5751 5750 5750 5749 5748 5747 5747 5746 5745 5744 5744 5743 5742 5741 5740 5739 5739 5738 5737 5737
5764 5764 5763 5763 5763 5763 5763 5763 5763 5763 5763 5763 5763 5763 5764 5764 5764 5764 5763 5763 5764 5764 5764 5764 5764 5765 5765 5765 5764 5764 5763 5762 5761 5761 5760 5760 5760 5759 5758 5758 5757 5756 5756 5755 5754 5753 5752 5751 5751 5750 5749 5749 5748 5747 5747 5746 5746 5745 5744 5743 5742 5741 5740 5740 5739 5738 5738 5737 5736 5735 5734 5733 5732 5731
5761 5761 5761 5761 5761 5761 5760 5760 5760 5760 5761 5761 5760 5760 5761 5761 5761 5761 5761 5761 5761 5761 5761 5761 5761 5761 5761 5762 5761 5761 5760 5759 5759 5758 5758 5758 5758 5757 5756 5755 5754 5754 5753 5753 5752 5751 5750 5749 5748 5747 5746 5745 5744 5743 5742 5741 5741 5740 5739 5738 5737 5736 5735 5734 5733 5732 5731 5731 5730 5730 5729 5728 5727 5726
5758 5758 5758 5758 5758 5758 5758 5758 5758 5758 5758 5758 5758 5758 5758 5758 5758 5758 5758 5759 5758 5758 5758 5757 5757 5757 5757 5757 5757 5757 5757 5756 5756 5755 5755 5755 5754 5754 5753 5752 5752 5751 5750 5750 5749 5748 5747 5746 5745 5744 5743 5742 5740 5739 5738 5737 5736 5735 5734 5733 5731 5730 5729 5728 5727 5726 5725 5724 5723 5723 5722 5722 5721 5720
5755 5755 5756 5756 5756 5756 5756 5756 5756 5755 5756 5756 5756 5756 5756 5756 5755 5755 5754 5755 5755 5755 5755 5754 5754 5754 5754 5753 5753 5753 5753 5753 5752 5752 5752 5751 5751 5750 5750 5749 5748 5747 5747 5746 5745 5745 5744 5742 5741 5740 5739 5737 5736 5735 5734 5732 5731 5729 5728 5727 5725 5724 5723 5722 5720 5719 5718 5717 5716 5715 5715 5715 5714 5713
5752 5752 5752 5753 5753 5753 5753 5753 5753 5752 5753 5753 5753 5753 5753 5753 5753 5752 5751 5751 5751 5752 5752 5752 5751 5751 5751 5750 5750 5749 5749 5748 5749 5749 5748 5748 5747 5747 5746 5745 5744 5743 5743 5741 5740 5739 5739 5737 5736 5734 5733 5732 5730 5729 5728 5727 5726 5724 5723 5721 5719 5718 5716 5715 5714 5712 5711 5710 5709 5708 5707 5706 5706 5705
5749 5749 5749 5749 5749 5749 5749 5749 5749 5749 5749 5749 5749 5749 5749 5749 5749 5749 5748 5747 5746 5747 5747 5747 5747 5747 5747 5746 5746 5745 5745 5744 5744 5744 5744 5743 5742 5742 5741 5740 5739 5739 5738 5737 5735 5734 5733 5732 5730 5729 5728 5726 5725 5723 5723 5722 5721 5719 5718 5716 5714 5712 5710 5708 5707 5706 5704 5703 5702 5701 5699 5698 5697 5697
5747 5747 5747 5746 5746 5746 5746 5745 5745 5745 5745 5745 5745 5745 5745 5745 5745 5745 5745 5744 5743 5742 5742 5742 5742 5742 5742 5741 5741 5741 5741 5740 5740 5740 5739 5738 5738 5737 5736 5735 5734 5734 5734 5733 5731 5730 5729 5727 5725 5724 5723 5721 5719 5718 5717 5716 5715 5714 5712 5710 5708 5706 5704 5703 5701 5699 5697 5696 5695 5694 5692 5690 5689 5689
5745 5744 5744 5744 5744 5744 5744 5743 5743 5742 5742 5741 5741 5741 5740 5741 5741 5741 5741 5740 5740 5738 5737 5737 5737 5737 5737 5737 5737 5736 5736 5736 5736 5736 5735 5734 5733 5733 5732 5731 5730 5729 5729 5728 5727 5725 5724 5722 5721 5719 5718 5716 5714 5713 5713 5711 5709 5707 5705 5704 5702 5700 5698 5696 5694 5692 5691 5689 5687 5686 5685 5683 5682 5681
5742 5742 5742 5741 5741 5740 5740 5740 5739 5739 5738 5738 5737 5737 5737 5737 5736 5736 5736 5735 5735 5734 5733 5732 5732 5732 5732 5732 5731 5731 5731 5731 5731 5731 5731 5730 5729 5728 5727 5726 5725 5724 5724 5724 5722 5720 5719 5718 5716 5714 5712 5710 5709 5708 5707 5705 5703 5701 5699 5697 5695 5693 5692 5690 5688 5685 5683 5682 5680 5678 5677 5675 5674 5673
5738 5739 5739 5738 5738 5737 5736 5735 5735 5734 5734 5734 5734 5733 5733 5733 5732 5732 5731 5730 5730 5729 5729 5728 5727 5726 5726 5726 5726 5726 5726 5726 5726 5726 5726 5725 5725 5724 5722 5721 5720 5720 5720 5719 5717 5715 5714 5713 5711 5709 5707 5704 5702 5702 5701 5698 5696 5694 5692 5690 5688 5687 5685 5683 5680 5678 5676 5674 5672 5670 5668 5667 5665 5664
5734 5734 5734 5734 5734 5733 5733 5732 5731 5731 5731 5729 5729 5730 5730 5729 5728 5727 5726 5725 5724 5723 5723 5722 5722 5721 5721 5720 5720 5720 5720 5720 5720 5720 5720 5720 5719 5718 5717 5716 5715 5715 5714 5713 5712 5710 5709 5708 5706 5703 5701 5698 5696 5695 5693 5691 5689 5687 5685 5683 5681 5679 5677 5675 5672 5670 5667 5665 5663 5660 5659 5658 5656 5654
5729 5729 5729 5729 5729 5728 5728 5728 5727 5728 5727 5725 5725 5725 5724 5723 5722 5721 5720 5720 5718 5717 5717 5716 5716 5715 5715 5714 5714 5714 5714 5714 5714 5714 5714 5713 5713 5712 5711 5710 5710 5709 5708 5707 5706 5704 5703 5702 5700 5697 5694 5692 5690 5688 5685 5682 5680 5678 5676 5675 5672 5670 5668 5666 5663 5660 5657 5655 5652 5650 5648 5647 5645 5643
5724 5724 5725 5725 5724 5723 5722 5723 5722 5723 5722 5721 5721 5720 5719 5717 5717 5715 5714 5714 5712 5712 5711 5711 5710 5710 5710 5710 5709 5709 5709 5708 5708 5708 5707 5706 5706 5706 5705 5705 5704 5702 5702 5702 5700 5698 5697 5696 5694 5691 5688 5686 5683 5681 5678 5674 5671 5668 5667 5665 5663 5660 5657 5655 5652 5649 5646 5644 5641 5639 5637 5635 5633 5632
5719 5719 5719 5720 5720 5718 5717 5717 5716 5716 5716 5715 5715 5715 5713 5713 5712 5711 5709 5707 5706 5705 5705 5705 5704 5704 5704 5704 5704 5704 5703 5703 5702 5702 5701 5700 5700 5700 5700 5699 5698 5697 5697 5696 5694 5692 5691 5689 5687 5685 5683 5680 5677 5674 5671 5666 5662 5660 5658 5656 5653 5650 5647 5644 5641 5638 5635 5633 5630 5628 5626 5624 5622 5620
5712 5712 5712 5713 5713 5712 5712 5711 5710 5709 5709 5709 5709 5708 5707 5707 5706 5705 5703 5701 5700 5699 5699 5698 5699 5698 5699 5699 5698 5698 5698 5697 5697 5696 5695 5695 5695 5695 5695 5694 5693 5691 5691 5690 5688 5686 5684 5682 5680 5678 5677 5675 5671 5667 5663 5659 5655 5652 5650 5647 5643 5639 5636 5633 5630 5628 5625 5623 5621 5619 5616 5614 5613 5611
5704 5705 5705 5705 5705 5705 5704 5703 5703 5702 5702 5702 5702 5700 5700 5700 5699 5698 5696 5695 5694 5694 5693 5693 5692 5692 5692 5692 5692 5692 5691 5691 5691 5690 5690 5690 5689 5689 5689 5688 5687 5686 5685 5684 5682 5680 5678 5676 5674 5672 5670 5668 5665 5661 5657 5652 5647 5644 5642 5638 5634 5630 5627 5624 5621 5619 5617 5614 5612 5610 5608 5606 5605 5603
5697 5697 5696 5697 5697 5697 5696 5696 5695 5695 5694 5695 5695 5693 5692 5692 5691 5690 5690 5689 5688 5687 5687 5687 5687 5686 5687 5686 5686 5685 5685 5684 5685 5685 5684 5684 5684 5683 5683 5682 5681 5680 5679 5678 5676 5674 5672 5670 5669 5667 5664 5661 5658 5655 5651 5645 5639 5635 5633 5630 5626 5623 5620 5617 5614 5612 5609 5607 5605 5603 5601 5599 5597 5595
5689 5688 5688 5687 5687 5687 5688 5688 5688 5687 5687 5687 5688 5687 5685 5684 5683 5683 5683 5681 5681 5680 5680 5680 5681 5681 5681 5680 5679 5679 5679 5679 5679 5678 5678 5678 5678 5678 5677 5676 5675 5674 5673 5672 5670 5668 5666 5664 5662 5660 5657 5654 5651 5648 5644 5638 5631 5627 5624 5621 5619 5616 5613 5610 5607 5605 5603 5600 5598 5595 5593 5591 5590 5588
5680 5680 5679 5679 5678 5678 5678 5679 5679 5679 5679 5679 5680 5679 5678 5676 5675 5675 5675 5674 5673 5673 5673 5674 5675 5675 5674 5674 5674 5673 5673 5673 5672 5672 5671 5671 5671 5671 5671 5670 5669 5668 5667 5666 5664 5662 5661 5658 5656 5653 5650 5647 5644 5640 5636 5630 5625 5621 5617 5614 5612 5610 5606 5603 5600 5598 5595 5593 5591 5589 5587 5585 5583 5581
5671 5671 5670 5670 5669 5669 5670 5669 5670 5670 5671 5671 5671 5671 5670 5669 5669 5668 5667 5667 5666 5666 5667 5668 5668 5668 5668 5668 5667 5667 5667 5666 5666 5665 5665 5665 5664 5664 5664 5663 5663 5662 5661 5660 5658 5656 5654 5652 5650 5647 5643 5640 5636 5633 5629 5624 5619 5616 5612 5607 5604 5602 5600 5596 5593 5591 5589 5587 5585 5583 5581 5580 5578 5576
5661 5661 5661 5661 5661 5661 5661 5660 5661 5661 5662 5662 5662 5662 5662 5662 5661 5660 5660 5660 5659 5659 5660 5661 5662 5662 5661 5661 5661 5660 5660 5660 5659 5659 5659 5659 5658 5658 5657 5657 5657 5656 5655 5654 5652 5650 5648 5646 5643 5640 5636 5632 5629 5626 5623 5618 5613 5610 5606 5601 5597 5595 5593 5590 5588 5586 5584 5582 5580 5578 5577 5575 5573 5571
5651 5651 5651 5651 5651 5651 5651 5652 5653 5653 5654 5654 5654 5654 5653 5653 5653 5653 5653 5653 5653 5653 5653 5654 5654 5653 5654 5654 5654 5654 5654 5653 5653 5654 5653 5653 5653 5652 5652 5651 5651 5650 5649 5647 5646 5644 5642 5639 5636 5633 5629 5625 5622 5619 5616 5612 5607 5603 5600 5596 5592 5589 5588 5586 5583 5582 5580 5578 5575 5574 5572 5570 5568 5566
5640 5640 5640 5640 5641 5642 5642 5643 5644 5645 5646 5646 5646 5646 5645 5645 5646 5646 5646 5646 5647 5647 5646 5646 5645 5646 5646 5647 5647 5647 5648 5648 5648 5648 5648 5648 5647 5647 5646 5645 5644 5643 5642 5641 5639 5638 5636 5632 5629 5625 5622 5619 5616 5612 5608 5606 5602 5598 5595 5592 5588 5585 5583 5582 5580 5578 5576 5574 5572 5570 5568 5566 5564 5561
5631 5630 5630 5630 5631 5632 5633 5634 5635 5635 5636 5637 5637 5638 5638 5638 5638 5639 5639 5639 5640 5640 5639 5639 5639 5639 5640 5640 5641 5641 5641 5642 5642 5642 5642 5642 5642 5642 5641 5640 5639 5637 5635 5634 5633 5631 5629 5626 5622 5619 5616 5613 5610 5606 5602 5600 5597 5593 5590 5588 5585 5582 5580 5578 5576 5574 5572 5570 5568 5565 5563 5561 5559 5556
5623 5622 5621 5621 5622 5623 5624 5624 5625 5626 5627 5628 5629 5629 5630 5631 5631 5631 5632 5632 5632 5632 5633 5633 5633 5633 5634 5634 5634 5635 5635 5636 5636 5637 5636 5636 5636 5636 5635 5634 5633 5632 5630 5628 5627 5624 5622 5619 5615 5612 5609 5606 5604 5601 5598 5595 5592 5589 5586 5583 5580 5578 5576 5575 5573 5571 5569 5567 5565 5562 5559 5557 5554 5551
5615 5614 5613 5612 5612 5613 5614 5615 5616 5617 5619 5620 5621 5622 5623 5624 5625 5625 5625 5625 5625 5626 5626 5627 5627 5627 5628 5629 5629 5630 5630 5631 5631 5631 5631 5631 5631 5630 5630 5629 5628 5627 5625 5623 5621 5619 5616 5613 5609 5606 5603 5601 5599 5597 5594 5590 5587 5585 5582 5579 5577 5575 5573 5571 5569 5568 5566 5564 5562 5558 5555 5552 5549 5546
5608 5608 5605 5604 5604 5604 5605 5606 5608 5610 5611 5612 5614 5615 5616 5617 5618 5619 5618 5618 5619 5620 5621 5621 5622 5622 5623 5624 5625 5625 5626 5626 5626 5626 5626 5626 5625 5624 5624 5623 5622 5621 5620 5619 5617 5614 5611 5608 5605 5602 5599 5596 5593 5591 5589 5587 5584 5581 5578 5576 5573 5572 5570 5568 5566 5564 5562 5560 5558 5555 5551 5547 5544 5541
5599 5600 5598 5597 5597 5597 5597 5598 5600 5602 5604 5605 5607 5608 5609 5610 5611 5612 5612 5613 5614 5615 5616 5617 5617 5618 5618 5619 5619 5620 5620 5621 5621 5621 5620 5620 5619 5619 5618 5618 5617 5616 5615 5614 5612 5609 5606 5603 5601 5599 5595 5592 5588 5585 5583 5582 5580 5578 5575 5572 5570 5568 5567 5564 5562 5560 5558 5555 5553 5551 5547 5543 5539 5536
5588 5590 5590 5589 5589 5590 5591 5592 5594 5596 5598 5599 5600 5601 5602 5602 5603 5605 5606 5607 5608 5609 5610 5611 5612 5613 5613 5614 5614 5615 5615 5615 5615 5615 5615 5614 5614 5614 5614 5613 5613 5612 5610 5608 5606 5603 5601 5599 5597 5595 5592 5589 5584 5580 5577 5575 5574 5573 5571 5568 5566 5564 5562 5560 5558 5556 5554 5551 5549 5546 5543 5538 5535 5532
5575 5578 5580 5581 5581 5583 5584 5585 5587 5590 5592 5593 5594 5594 5595 5596 5597 5599 5601 5601 5602 5604 5605 5606 5607 5608 5608 5609 5609 5609 5610 5610 5610 5610 5610 5610 5610 5610 5609 5609 5608 5606 5605 5602 5600 5598 5596 5595 5593 5591 5588 5585 5581 5577 5573 5571 5569 5568 5567 5565 5562 5560 5559 5556 5554 5551 5549 5546 5544 5542 5539 5534 5530 5527
5565 5567 5570 5572 5574 5575 5577 5579 5581 5584 5586 5587 5588 5589 5590 5590 5591 5593 5594 5595 5597 5599 5601 5601 5601 5602 5603 5603 5604 5604 5604 5605 5605 5605 5605 5605 5605 5605 5605 5604 5603 5601 5599 5597 5595 5594 5592 5591 5589 5587 5584 5581 5578 5575 5571 5568 5565 5563 5562 5561 5559 5557 5555 5553 5550 5547 5545 5542 5539 5537 5534 5530 5526 5523
5556 5558 5561 5563 5565 5567 5570 5572 5575 5576 5578 5580 5582 5583 5584 5584 5585 5586 5588 5590 5592 5594 5594 5595 5596 5597 5598 5599 5599 5600 5600 5600 5601 5601 5601 5601 5601 5601 5600 5599 5597 5596 5594 5592 5591 5590 5589 5587 5585 5582 5579 5577 5574 5571 5568 5565 5562 5560 5558 5556 5554 5553 5551 5549 5547 5544 5541 5538 5534 5531 5529 5526 5522 5519
5549 5551 5553 5555 5557 5560 5562 5565 5567 5569 5571 5574 5575 5577 5578 5579 5580 5581 5584 5585 5587 5587 5588 5589 5591 5593 5594 5594 5595 5595 5596 5596 5596 5597 5597 5597 5597 5597 5595 5594 5592 5591 5589 5588 5587 5586 5585 5583 5581 5578 5575 5573 5570 5568 5565 5562 5559 5556 5554 5552 5550 5548 5547 5545 5543 5540 5537 5534 5530 5527 5523 5521 5518 5516
5543 5544 5546 5548 5550 5552 5555 5558 5560 5561 5564 5567 5570 5572 5574 5575 5576 5577 5578 5579 5580 5582 5583 5585 5587 5588 5589 5590 5590 5591 5591 5592 5592 5593 5593 5593 5593 5592 5591 5589 5588 5586 5585 5584 5583 5582 5581 5579 5576 5574 5572 5569 5567 5565 5562 5559 5555 5552 5550 5548 5546 5544 5542 5541 5539 5536 5533 5530 5526 5522 5519 5516 5514 5512
5536 5538 5540 5543 5545 5547 5550 5553 5555 5556 5558 5562 5566 5568 5569 5570 5570 5571 5572 5573 5575 5577 5579 5581 5583 5584 5584 5585 5586 5587 5587 5588 5588 5589 5589 5589 5588 5587 5586 5584 5583 5582 5581 5581 5580 5579 5577 5575 5573 5570 5568 5566 5564 5561 5559 5555 5552 5549 5546 5544 5542 5540 5539 5537 5535 5532 5530 5526 5522 5518 5514 5512 5510 5510
5530 5533 5535 5538 5541 5543 5546 5548 5550 5553 5555 5558 5561 5562 5563 5563 5563 5564 5566 5569 5572 5574 5576 5577 5579 5580 5581 5582 5582 5583 5584 5584 5585 5585 5585 5584 5583 5582 5581 5580 5579 5578 5578 5577 5576 5575 5574 5572 5569 5567 5565 5563 5561 5558 5556 5552 5549 5546 5543 5541 5539 5537 5536 5534 5532 5529 5526 5522 5518 5515 5511 5509 5509 5508
5525 5528 5531 5534 5536 5539 5541 5544 5546 5548 5551 5553 5554 5555 5555 5556 5557 5560 5562 5565 5568 5570 5572 5573 5575 5576 5577 5578 5579 5580 5580 5581 5581 5581 5580 5580 5578 5577 5576 5576 5575 5575 5574 5573 5572 5571 5570 5568 5566 5564 5562 5560 5558 5555 5553 5550 5546 5543 5540 5538 5537 5535 5533 5531 5529 5527 5523 5520 5516 5513 5510 5509 5508 5508